When you browse on this site, cookies collect data to enhance your experience and personalize the content and advertising you see.
Visit our Privacy Policy to learn more. By continuing to use the site, you agree to this use of cookies and data.
  • In United Kingdom
  • List of Countries
  • For 7 days
  • Water Temperature
  • Weather Map
  • Weather Widgets
  • user-avatar
    Login

    Hourly Weather Byala

    Today, 22 October, Tuesday

    Time Temperature Precipitation Wind Pressure Humidity
    00:00 +15°C° 0 mm 1 mps 757 mmHg 92%
    01:00 +14°C° 0 mm 1 mps 757 mmHg 92%
    02:00 +14°C° 0 mm 1 mps 757 mmHg 92%
    03:00 +14°C° 0 mm 2 mps 757 mmHg 92%
    04:00 +14°C° 0 mm 2 mps 757 mmHg 92%
    05:00 +13°C° 0 mm 2 mps 757 mmHg 91%
    06:00 +14°C° 0 mm 2 mps 757 mmHg 89%
    07:00 +15°C° 0 mm 2 mps 757 mmHg 86%
    08:00 +15°C° 0 mm 2 mps 757 mmHg 83%
    09:00 +17°C° 0 mm 2 mps 757 mmHg 77%
    10:00 +19°C° 0 mm 3 mps 757 mmHg 70%
    11:00 +20°C° 0 mm 3 mps 758 mmHg 63%
    12:00 +21°C° 0 mm 3 mps 757 mmHg 61%
    13:00 +21°C° 0 mm 3 mps 757 mmHg 60%
    14:00 +22°C° 0 mm 4 mps 757 mmHg 58%
    15:00 +21°C° 0 mm 4 mps 757 mmHg 65%
    16:00 +20°C° 0 mm 4 mps 757 mmHg 72%
    17:00 +19°C° 0 mm 4 mps 756 mmHg 78%
    18:00 +18°C° 0 mm 4 mps 757 mmHg 83%
    19:00 +17°C° 0 mm 4 mps 757 mmHg 87%
    20:00 +15°C° 0 mm 4 mps 757 mmHg 92%
    21:00 +16°C° 0 mm 3 mps 757 mmHg 92%
    22:00 +14°C° 0 mm 3 mps 757 mmHg 92%
    23:00 +15°C° 0 mm 2 mps 757 mmHg 93%

    Tomorrow, 23 October, Wednesday

    Time Temperature Precipitation Wind Pressure Humidity
    00:00 +15°C° 0 mm 2 mps 757 mmHg 92%
    01:00 +14°C° 0 mm 2 mps 757 mmHg 92%
    02:00 +14°C° 0 mm 2 mps 757 mmHg 92%
    03:00 +14°C° 0 mm 2 mps 757 mmHg 92%
    04:00 +13°C° 0 mm 3 mps 756 mmHg 91%
    05:00 +12°C° 0 mm 3 mps 756 mmHg 90%
    06:00 +13°C° 0 mm 3 mps 756 mmHg 86%
    07:00 +14°C° 0 mm 3 mps 756 mmHg 81%
    08:00 +14°C° 0 mm 3 mps 757 mmHg 76%
    09:00 +17°C° 0 mm 3 mps 757 mmHg 68%
    10:00 +19°C° 0 mm 3 mps 756 mmHg 61%
    11:00 +21°C° 0 mm 3 mps 756 mmHg 53%
    12:00 +21°C° 0 mm 3 mps 756 mmHg 52%
    13:00 +22°C° 0 mm 3 mps 756 mmHg 51%
    14:00 +22°C° 0 mm 3 mps 755 mmHg 50%
    15:00 +21°C° 0 mm 3 mps 755 mmHg 56%
    16:00 +20°C° 0 mm 3 mps 755 mmHg 63%
    17:00 +18°C° 0 mm 3 mps 755 mmHg 69%
    18:00 +18°C° 0 mm 3 mps 755 mmHg 74%
    19:00 +17°C° 0 mm 3 mps 755 mmHg 79%
    20:00 +16°C° 0 mm 3 mps 755 mmHg 84%
    21:00 +15°C° 0 mm 2 mps 755 mmHg 85%
    22:00 +15°C° 0 mm 2 mps 755 mmHg 86%
    23:00 +15°C° 0 mm 1 mps 755 mmHg 87%

    Day after tomorrow, 24 October, Thursday

    Time Temperature Precipitation Wind Pressure Humidity
    00:00 +14°C° 0 mm 2 mps 755 mmHg 87%
    01:00 +14°C° 0 mm 2 mps 755 mmHg 87%
    02:00 +14°C° 0 mm 2 mps 755 mmHg 88%
    03:00 +14°C° 0 mm 2 mps 755 mmHg 87%
    04:00 +13°C° 0 mm 2 mps 755 mmHg 86%
    05:00 +13°C° 0 mm 2 mps 755 mmHg 85%
    06:00 +14°C° 0 mm 2 mps 755 mmHg 81%
    07:00 +14°C° 0 mm 2 mps 755 mmHg 77%
    08:00 +15°C° 0 mm 2 mps 755 mmHg 73%
    09:00 +17°C° 0 mm 2 mps 755 mmHg 65%
    10:00 +18°C° 0 mm 2 mps 754 mmHg 58%
    11:00 +20°C° 0 mm 2 mps 754 mmHg 50%
    12:00 +21°C° 0 mm 2 mps 754 mmHg 47%
    13:00 +21°C° 0 mm 3 mps 754 mmHg 45%
    14:00 +22°C° 0 mm 3 mps 754 mmHg 43%
    15:00 +20°C° 0 mm 3 mps 754 mmHg 50%
    16:00 +19°C° 0 mm 3 mps 753 mmHg 57%
    17:00 +17°C° 0 mm 3 mps 753 mmHg 65%
    18:00 +17°C° 0 mm 3 mps 753 mmHg 71%
    19:00 +16°C° 0 mm 3 mps 754 mmHg 76%
    20:00 +14°C° 0 mm 3 mps 754 mmHg 82%
    21:00 +15°C° 0 mm 2 mps 754 mmHg 84%
    22:00 +14°C° 0 mm 2 mps 754 mmHg 85%
    23:00 +14°C° 0 mm 2 mps 754 mmHg 86%

    25 October, Friday

    Time Temperature Precipitation Wind Pressure Humidity
    00:00 +14°C° 0 mm 2 mps 754 mmHg 86%
    01:00 +14°C° 0 mm 2 mps 754 mmHg 86%
    02:00 +13°C° 0 mm 2 mps 754 mmHg 86%
    03:00 +13°C° 0 mm 2 mps 754 mmHg 85%
    04:00 +13°C° 0 mm 2 mps 754 mmHg 85%
    05:00 +13°C° 0 mm 2 mps 754 mmHg 84%
    06:00 +13°C° 0 mm 2 mps 754 mmHg 80%
    07:00 +13°C° 0 mm 3 mps 754 mmHg 76%
    08:00 +13°C° 0 mm 3 mps 754 mmHg 72%
    09:00 +16°C° 0 mm 3 mps 754 mmHg 64%
    10:00 +18°C° 0 mm 3 mps 754 mmHg 56%
    11:00 +20°C° 0 mm 3 mps 755 mmHg 47%
    12:00 +21°C° 0 mm 3 mps 754 mmHg 46%
    13:00 +21°C° 0 mm 3 mps 754 mmHg 44%
    14:00 +22°C° 0 mm 3 mps 754 mmHg 43%
    15:00 +21°C° 0 mm 4 mps 754 mmHg 51%
    16:00 +19°C° 0 mm 4 mps 754 mmHg 59%
    17:00 +18°C° 0 mm 4 mps 754 mmHg 67%
    18:00 +17°C° 0 mm 4 mps 754 mmHg 72%
    19:00 +16°C° 0 mm 3 mps 754 mmHg 76%
    20:00 +14°C° 0 mm 3 mps 755 mmHg 80%
    21:00 +14°C° 0 mm 3 mps 755 mmHg 82%
    22:00 +15°C° 0 mm 2 mps 755 mmHg 83%
    23:00 +14°C° 0 mm 2 mps 755 mmHg 85%

    26 October, Saturday

    Time Temperature Precipitation Wind Pressure Humidity
    00:00 +14°C° 0 mm 2 mps 755 mmHg 85%
    01:00 +14°C° 0 mm 2 mps 755 mmHg 85%
    02:00 +13°C° 0 mm 2 mps 755 mmHg 85%
    03:00 +13°C° 0 mm 2 mps 755 mmHg 84%
    04:00 +13°C° 0 mm 2 mps 755 mmHg 84%
    05:00 +13°C° 0 mm 2 mps 755 mmHg 83%
    06:00 +13°C° 0 mm 2 mps 755 mmHg 79%
    07:00 +14°C° 0 mm 2 mps 755 mmHg 75%
    08:00 +14°C° 0 mm 2 mps 755 mmHg 70%
    09:00 +16°C° 0 mm 2 mps 755 mmHg 62%
    10:00 +18°C° 0 mm 2 mps 756 mmHg 54%
    11:00 +20°C° 0 mm 2 mps 756 mmHg 45%
    12:00 +21°C° 0 mm 2 mps 755 mmHg 44%
    13:00 +21°C° 0 mm 2 mps 755 mmHg 42%
    14:00 +23°C° 0 mm 2 mps 755 mmHg 41%
    15:00 +20°C° 0 mm 2 mps 754 mmHg 48%
    16:00 +19°C° 0 mm 2 mps 754 mmHg 55%
    17:00 +17°C° 0 mm 2 mps 754 mmHg 62%
    18:00 +17°C° 0 mm 2 mps 754 mmHg 66%
    19:00 +16°C° 0 mm 2 mps 754 mmHg 71%
    20:00 +15°C° 0 mm 1 mps 754 mmHg 76%
    21:00 +15°C° 0 mm 1 mps 754 mmHg 77%
    22:00 +15°C° 0 mm 1 mps 754 mmHg 78%
    23:00 +14°C° 0 mm 1 mps 754 mmHg 79%

    27 October, Sunday

    Time Temperature Precipitation Wind Pressure Humidity
    00:00 +14°C° 0 mm 1 mps 754 mmHg 79%
    01:00 +14°C° 0 mm 1 mps 754 mmHg 78%
    02:00 +14°C° 0 mm 1 mps 754 mmHg 78%
    03:00 +13°C° 0 mm 1 mps 754 mmHg 77%
    04:00 +13°C° 0 mm 1 mps 754 mmHg 76%
    05:00 +13°C° 0 mm 1 mps 754 mmHg 74%
    06:00 +14°C° 0 mm 1 mps 754 mmHg 71%
    07:00 +14°C° 0 mm 1 mps 754 mmHg 68%
    08:00 +15°C° 0 mm 1 mps 754 mmHg 65%
    09:00 +18°C° 0 mm 1 mps 754 mmHg 58%
    10:00 +20°C° 0 mm 1 mps 754 mmHg 51%
    11:00 +22°C° 0 mm 1 mps 754 mmHg 44%
    12:00 +22°C° 0 mm 1 mps 754 mmHg 42%
    13:00 +23°C° 0 mm 1 mps 753 mmHg 40%
    14:00 +24°C° 0 mm 2 mps 753 mmHg 38%
    15:00 +21°C° 0 mm 2 mps 753 mmHg 46%
    16:00 +19°C° 0 mm 2 mps 753 mmHg 55%
    17:00 +18°C° 0 mm 2 mps 752 mmHg 63%
    18:00 +17°C° 0 mm 2 mps 753 mmHg 65%
    19:00 +16°C° 0 mm 2 mps 753 mmHg 68%
    20:00 +16°C° 0 mm 2 mps 753 mmHg 70%
    21:00 +15°C° 0 mm 2 mps 753 mmHg 70%
    22:00 +15°C° 0 mm 2 mps 753 mmHg 70%
    23:00 +15°C° 0 mm 2 mps 753 mmHg 69%
    Show more